Simultaneous Nadir Overpasses (SNOs) Predictions

Prediction of SNOs between GOES-15 and TERRA Satellite Orbit:

Table of predicted SNOs for the next 14.0 days since TLE Epoch: 5/7/2012
Index Date Time (GOES-15) GOES-15 Lat,Lon TERRA Lat,Lon Distance(km) Time Diff (sec)
1 05/07/2012 19:12:44 -0.12,-135.30 -0.98,-131.21 464.74 80
2 05/08/2012 07:36:48 0.11,-135.30 -0.14,-136.40 125.88 80
3 05/10/2012 07:21:57 0.12,-135.32 0.52,-133.45 213.05 80
4 05/10/2012 19:45:52 -0.11,-135.34 0.60,-138.60 371.03 80
5 05/12/2012 19:33:41 -0.12,-135.37 -0.07,-135.65 32.19 80
6 05/14/2012 19:18:49 -0.12,-135.39 -0.69,-132.69 306.61 80
7 05/15/2012 07:42:53 0.11,-135.39 -0.42,-137.88 283.90 80
8 05/17/2012 07:28:01 0.11,-135.40 0.22,-134.92 54.42 80
9 05/19/2012 07:15:49 0.12,-135.41 0.86,-131.97 392.18 80
10 05/19/2012 19:39:44 -0.10,-135.43 0.26,-137.12 192.39 80




NCC Satellite Simultaneous Nadir Overpasses (SNOs) Prediction Service
